When you browse on this site, cookies collect data to enhance your experience and personalize the content and advertising you see.
Visit our Privacy Policy to learn more. By continuing to use the site, you agree to this use of cookies and data.
  • In Hungary
  • List of Countries
  • For 7 days
  • Water Temperature
  • Satellite Maps
  • Weather Map
  • News
  • Weather Widgets
  • user-avatar
    Login

    Hourly Weather Staroe Kitovo

    Today, 25 May, Saturday

    Time Temperature Precipitation Wind Pressure Humidity
    00:00 +10°C° 0 mm 2 mps 739 mmHg 95%
    01:00 +10°C° 0 mm 2 mps 738 mmHg 93%
    02:00 +12°C° 0 mm 2 mps 738 mmHg 94%
    03:00 +12°C° 0 mm 2 mps 738 mmHg 93%
    04:00 +12°C° 0 mm 3 mps 737 mmHg 92%
    05:00 +12°C° 0 mm 3 mps 737 mmHg 91%
    06:00 +13°C° 0 mm 3 mps 737 mmHg 90%
    07:00 +13°C° 0 mm 3 mps 737 mmHg 88%
    08:00 +14°C° 0 mm 3 mps 736 mmHg 86%
    09:00 +15°C° 0.2 mm 4 mps 736 mmHg 84%
    10:00 +17°C° 0.2 mm 4 mps 736 mmHg 83%
    11:00 +17°C° 0.2 mm 4 mps 736 mmHg 81%
    12:00 +18°C° 0.7 mm 4 mps 735 mmHg 80%
    13:00 +19°C° 0.7 mm 4 mps 735 mmHg 79%
    14:00 +19°C° 0 mm 4 mps 734 mmHg 78%
    15:00 +19°C° 0.5 mm 3 mps 734 mmHg 79%
    16:00 +18°C° 0.5 mm 3 mps 734 mmHg 80%
    17:00 +18°C° 0.5 mm 3 mps 734 mmHg 81%
    18:00 +17°C° 0 mm 3 mps 733 mmHg 84%
    19:00 +16°C° 0 mm 2 mps 733 mmHg 87%
    20:00 +15°C° 0 mm 2 mps 733 mmHg 90%
    21:00 +15°C° 0.1 mm 2 mps 733 mmHg 93%
    22:00 +14°C° 0.1 mm 2 mps 733 mmHg 95%
    23:00 +13°C° 0.1 mm 2 mps 733 mmHg 97%

    Tomorrow, 26 May, Sunday

    Time Temperature Precipitation Wind Pressure Humidity
    00:00 +12°C° 0 mm 2 mps 733 mmHg 97%
    01:00 +10°C° 0 mm 2 mps 733 mmHg 97%
    02:00 +10°C° 0 mm 2 mps 733 mmHg 97%
    03:00 +10°C° 0 mm 2 mps 733 mmHg 96%
    04:00 +10°C° 0 mm 2 mps 733 mmHg 94%
    05:00 +10°C° 0 mm 2 mps 734 mmHg 93%
    06:00 +12°C° 0 mm 2 mps 734 mmHg 85%
    07:00 +13°C° 0 mm 3 mps 734 mmHg 76%
    08:00 +14°C° 0 mm 3 mps 734 mmHg 68%
    09:00 +16°C° 0 mm 3 mps 734 mmHg 62%
    10:00 +17°C° 0 mm 3 mps 734 mmHg 56%
    11:00 +18°C° 0 mm 3 mps 734 mmHg 49%
    12:00 +19°C° 0 mm 3 mps 734 mmHg 48%
    13:00 +19°C° 0 mm 3 mps 734 mmHg 46%
    14:00 +20°C° 0 mm 3 mps 734 mmHg 45%
    15:00 +19°C° 0 mm 3 mps 733 mmHg 46%
    16:00 +19°C° 0 mm 3 mps 733 mmHg 47%
    17:00 +19°C° 0 mm 2 mps 733 mmHg 48%
    18:00 +17°C° 0 mm 2 mps 733 mmHg 56%
    19:00 +16°C° 0 mm 2 mps 733 mmHg 65%
    20:00 +14°C° 0 mm 2 mps 733 mmHg 73%
    21:00 +13°C° 0 mm 2 mps 733 mmHg 77%
    22:00 +11°C° 0 mm 3 mps 733 mmHg 81%
    23:00 +10°C° 0 mm 3 mps 733 mmHg 85%

    Day after tomorrow, 27 May, Monday

    Time Temperature Precipitation Wind Pressure Humidity
    00:00 +10°C° 0 mm 3 mps 733 mmHg 85%
    01:00 +10°C° 0 mm 3 mps 733 mmHg 85%
    02:00 +10°C° 0 mm 3 mps 733 mmHg 85%
    03:00 +10°C° 0 mm 3 mps 733 mmHg 84%
    04:00 +10°C° 0 mm 4 mps 733 mmHg 82%
    05:00 +8°C° 0 mm 4 mps 734 mmHg 81%
    06:00 +10°C° 0 mm 4 mps 734 mmHg 78%
    07:00 +11°C° 0 mm 4 mps 734 mmHg 75%
    08:00 +12°C° 0 mm 5 mps 734 mmHg 71%
    09:00 +13°C° 0.1 mm 5 mps 734 mmHg 66%
    10:00 +14°C° 0.1 mm 5 mps 735 mmHg 61%
    11:00 +15°C° 0.1 mm 6 mps 735 mmHg 56%
    12:00 +15°C° 0.1 mm 6 mps 735 mmHg 60%
    13:00 +15°C° 0.1 mm 6 mps 736 mmHg 63%
    14:00 +15°C° 0.1 mm 6 mps 736 mmHg 67%
    15:00 +15°C° 0.1 mm 5 mps 736 mmHg 71%
    16:00 +14°C° 0.1 mm 4 mps 736 mmHg 75%
    17:00 +14°C° 0.1 mm 4 mps 736 mmHg 79%
    18:00 +13°C° 0.3 mm 3 mps 736 mmHg 84%
    19:00 +14°C° 0.3 mm 2 mps 736 mmHg 90%
    20:00 +13°C° 0.3 mm 2 mps 736 mmHg 96%
    21:00 +14°C° 0.6 mm 2 mps 736 mmHg 96%
    22:00 +13°C° 0.6 mm 3 mps 736 mmHg 96%
    23:00 +14°C° 0.6 mm 3 mps 736 mmHg 96%

    28 May, Tuesday

    Time Temperature Precipitation Wind Pressure Humidity
    00:00 +13°C° 0 mm 3 mps 736 mmHg 96%
    01:00 +13°C° 0 mm 3 mps 737 mmHg 97%
    02:00 +14°C° 0 mm 2 mps 737 mmHg 97%
    03:00 +14°C° 0 mm 2 mps 737 mmHg 97%
    04:00 +14°C° 0 mm 2 mps 737 mmHg 97%
    05:00 +14°C° 0 mm 2 mps 738 mmHg 96%
    06:00 +15°C° 0 mm 2 mps 738 mmHg 93%
    07:00 +17°C° 0 mm 2 mps 738 mmHg 90%
    08:00 +18°C° 0 mm 2 mps 739 mmHg 86%
    09:00 +19°C° 0.4 mm 3 mps 739 mmHg 81%
    10:00 +20°C° 0.4 mm 3 mps 739 mmHg 76%
    11:00 +22°C° 0.4 mm 4 mps 739 mmHg 71%
    12:00 +22°C° 0.4 mm 3 mps 739 mmHg 68%
    13:00 +24°C° 0.4 mm 3 mps 739 mmHg 64%
    14:00 +25°C° 0.4 mm 3 mps 739 mmHg 61%
    15:00 +24°C° 0.5 mm 2 mps 739 mmHg 67%
    16:00 +24°C° 0.5 mm 2 mps 739 mmHg 73%
    17:00 +23°C° 0.5 mm 2 mps 739 mmHg 79%
    18:00 +21°C° 0.4 mm 2 mps 739 mmHg 84%
    19:00 +20°C° 0.4 mm 2 mps 739 mmHg 88%
    20:00 +19°C° 0.4 mm 2 mps 739 mmHg 93%
    21:00 +18°C° 0.9 mm 3 mps 739 mmHg 93%
    22:00 +18°C° 0.9 mm 3 mps 739 mmHg 94%
    23:00 +18°C° 0.9 mm 3 mps 739 mmHg 95%

    29 May, Wednesday

    Time Temperature Precipitation Wind Pressure Humidity
    00:00 +18°C° 0.2 mm 3 mps 739 mmHg 95%
    01:00 +18°C° 0.2 mm 3 mps 739 mmHg 95%
    02:00 +17°C° 0.2 mm 3 mps 739 mmHg 95%
    03:00 +17°C° 0 mm 3 mps 739 mmHg 95%
    04:00 +17°C° 0 mm 4 mps 739 mmHg 94%
    05:00 +17°C° 0 mm 4 mps 739 mmHg 94%
    06:00 +19°C° 0 mm 4 mps 739 mmHg 88%
    07:00 +21°C° 0 mm 4 mps 739 mmHg 82%
    08:00 +22°C° 0 mm 4 mps 740 mmHg 75%
    09:00 +25°C° 0 mm 5 mps 740 mmHg 67%
    10:00 +26°C° 0 mm 5 mps 740 mmHg 58%
    11:00 +27°C° 0 mm 6 mps 739 mmHg 49%
    12:00 +28°C° 0 mm 6 mps 739 mmHg 48%
    13:00 +28°C° 0 mm 6 mps 739 mmHg 47%
    14:00 +28°C° 0 mm 6 mps 739 mmHg 46%
    15:00 +28°C° 0 mm 6 mps 739 mmHg 48%
    16:00 +27°C° 0 mm 5 mps 739 mmHg 51%
    17:00 +27°C° 0 mm 5 mps 739 mmHg 53%
    18:00 +25°C° 0 mm 5 mps 739 mmHg 58%
    19:00 +23°C° 0 mm 4 mps 739 mmHg 63%
    20:00 +21°C° 0 mm 4 mps 739 mmHg 68%
    21:00 +21°C° 0 mm 4 mps 740 mmHg 72%
    22:00 +20°C° 0 mm 3 mps 740 mmHg 77%
    23:00 +19°C° 0 mm 3 mps 740 mmHg 82%

    30 May, Thursday

    Time Temperature Precipitation Wind Pressure Humidity
    00:00 +19°C° 0 mm 3 mps 740 mmHg 84%
    01:00 +19°C° 0 mm 3 mps 740 mmHg 86%
    02:00 +18°C° 0 mm 3 mps 740 mmHg 87%
    03:00 +19°C° 0 mm 3 mps 740 mmHg 87%
    04:00 +19°C° 0 mm 4 mps 740 mmHg 86%
    05:00 +20°C° 0 mm 4 mps 740 mmHg 85%
    06:00 +21°C° 0 mm 4 mps 740 mmHg 80%
    07:00 +22°C° 0 mm 4 mps 740 mmHg 74%
    08:00 +25°C° 0 mm 5 mps 740 mmHg 69%
    09:00 +25°C° 0.3 mm 5 mps 740 mmHg 65%
    10:00 +26°C° 0.3 mm 5 mps 740 mmHg 62%
    11:00 +27°C° 0.3 mm 5 mps 740 mmHg 59%
    12:00 +27°C° 0.5 mm 5 mps 740 mmHg 58%
    13:00 +28°C° 0.5 mm 5 mps 739 mmHg 57%
    14:00 +28°C° 0.5 mm 5 mps 739 mmHg 56%
    15:00 +27°C° 0.6 mm 4 mps 739 mmHg 62%
    16:00 +26°C° 0.6 mm 4 mps 739 mmHg 68%
    17:00 +24°C° 0.6 mm 3 mps 739 mmHg 74%
    18:00 +22°C° 0.8 mm 3 mps 739 mmHg 80%
    19:00 +20°C° 0.8 mm 2 mps 739 mmHg 87%
    20:00 +19°C° 0.8 mm 2 mps 740 mmHg 93%
    21:00 +18°C° 0.2 mm 2 mps 740 mmHg 94%
    22:00 +17°C° 0.2 mm 2 mps 740 mmHg 96%
    23:00 +17°C° 0.2 mm 2 mps 741 mmHg 97%
    Show more